Weather History for Auburn, AL

Change the Weather History Date:

Thursday, November 14, 2013

  Actual Average Record
Temperature  
Mean Temperature 44 °F -  
Max Temperature 59 °F - 79 °F (1958)
Min Temperature 28 °F - 22 °F (1968)
Degree Days  
Heating Degree Days 21    
Month to date heating degree days 154  
Since 1 July heating degree days 190  
Moisture  
Dew Point 24 °F    
Average Humidity 47    
Maximum Humidity 64    
Minimum Humidity 28    
Precipitation  
Precipitation 0.00 in - 1.75 in (1957)
Month to date precipitation 0.56  
Year to date precipitation 40.02  
Sea Level Pressure  
Sea Level Pressure 30.37 in    
Wind  
Wind Speed 5 mph (East)    
Max Wind Speed 12 mph    
Max Gust Speed -    
Visibility 10 miles    
Events      
T = Trace of Precipitation, MM = Missing Value Source: NWS Daily Summary

Daily Weather History Graph

Daily Weather History Graph

Search for Another Location

Airport:

Trip Planner

Search our weather history database for the weather conditions in past years. The results will help you decide how hot, cold, wet, or windy it might be!

Date:

Astronomy

Nov. 14, 2013 Rise Set
Actual Time 6:10 AM CST 4:41 PM CST
Civil Twilight 5:44 AM CST 5:07 PM CST
Nautical Twilight 5:15 AM CST 5:36 PM CST
Astronomical Twilight 4:45 AM CST 6:06 PM CST
Moon 2:54 PM CST (11/14) 3:14 AM CST (11/14)
Length of Visible Light 11h 22m
Length of Day
10h 30m
Waxing Gibbous, 92% of the Moon is Illuminated
Nov 14
Waxing Gibbous
Nov 17
Full
Nov 25
Last Quarter
Dec 2
New
Dec 9
First Quarter

Hourly Weather History & Observations

Time (CST) Temp. Windchill Dew Point Humidity Pressure Visibility Wind Dir Wind Speed Gust Speed Precip Events Conditions
12:15 AM 32.0 °F 25.6 °F 15.8 °F 51% 30.44 in 10.0 mi NE 6.9 mph - N/A   Clear
12:35 AM 30.2 °F 23.4 °F 15.8 °F 55% 30.43 in 10.0 mi NE 6.9 mph - N/A   Clear
12:55 AM 30.2 °F 25.4 °F 17.6 °F 60% 30.43 in 10.0 mi NE 4.6 mph - N/A   Clear
1:15 AM 28.4 °F 23.3 °F 17.6 °F 64% 30.43 in 10.0 mi ENE 4.6 mph - N/A   Clear
1:35 AM 30.2 °F 24.3 °F 15.8 °F 55% 30.43 in 10.0 mi NE 5.8 mph - N/A   Clear
1:55 AM 30.2 °F 25.4 °F 14.0 °F 51% 30.43 in 10.0 mi NE 4.6 mph - N/A   Clear
2:15 AM 30.2 °F 24.3 °F 15.8 °F 55% 30.43 in 10.0 mi NE 5.8 mph - N/A   Clear
2:35 AM 28.4 °F 22.2 °F 15.8 °F 59% 30.43 in 10.0 mi ENE 5.8 mph - N/A   Clear
2:55 AM 28.4 °F 21.2 °F 15.8 °F 59% 30.42 in 10.0 mi NE 6.9 mph - N/A   Clear
3:15 AM 28.4 °F 22.2 °F 15.8 °F 59% 30.42 in 10.0 mi NE 5.8 mph - N/A   Clear
3:35 AM 28.4 °F 23.3 °F 15.8 °F 59% 30.43 in 10.0 mi NE 4.6 mph - N/A   Clear
3:55 AM 28.4 °F 24.6 °F 15.8 °F 59% 30.43 in 10.0 mi ENE 3.5 mph - N/A   Clear
4:15 AM 28.4 °F 23.3 °F 15.8 °F 59% 30.44 in 10.0 mi ENE 4.6 mph - N/A   Clear
4:35 AM 28.4 °F 23.3 °F 15.8 °F 59% 30.44 in 10.0 mi ENE 4.6 mph - N/A   Clear
4:55 AM 28.4 °F 23.3 °F 15.8 °F 59% 30.43 in 10.0 mi ENE 4.6 mph - N/A   Clear
5:15 AM 30.2 °F 25.4 °F 15.8 °F 55% 30.44 in 10.0 mi East 4.6 mph - N/A   Clear
5:35 AM 28.4 °F 23.3 °F 15.8 °F 59% 30.44 in 10.0 mi ENE 4.6 mph - N/A   Clear
5:55 AM 28.4 °F 23.3 °F 15.8 °F 59% 30.45 in 10.0 mi ENE 4.6 mph - N/A   Clear
6:15 AM 28.4 °F 21.2 °F 15.8 °F 59% 30.45 in 10.0 mi NE 6.9 mph - N/A   Clear
6:35 AM 28.4 °F 22.2 °F 15.8 °F 59% 30.45 in 10.0 mi NE 5.8 mph - N/A   Clear
6:55 AM 30.2 °F 25.4 °F 17.6 °F 60% 30.45 in 10.0 mi NE 4.6 mph - N/A   Clear
7:15 AM 32.0 °F 24.8 °F 17.6 °F 55% 30.45 in 10.0 mi NE 8.1 mph - N/A   Clear
7:35 AM 35.6 °F 30.7 °F 19.4 °F 52% 30.45 in 10.0 mi ENE 5.8 mph - N/A   Clear
7:55 AM 37.4 °F 29.8 °F 17.6 °F 45% 30.46 in 10.0 mi East 11.5 mph - N/A   Clear
8:15 AM 37.4 °F 30.3 °F 19.4 °F 48% 30.46 in 10.0 mi East 10.4 mph - N/A   Clear
8:35 AM 39.2 °F 33.6 °F 19.4 °F 45% 30.47 in 10.0 mi East 8.1 mph - N/A   Clear
8:55 AM 42.8 °F 37.5 °F 19.4 °F 39% 30.46 in 10.0 mi East 9.2 mph - N/A   Clear
9:15 AM 44.6 °F 38.4 °F 17.6 °F 34% 30.46 in 10.0 mi East 12.7 mph - N/A   Clear
9:35 AM 46.4 °F 41.1 °F 17.6 °F 32% 30.46 in 10.0 mi East 11.5 mph - N/A   Clear
9:55 AM 46.4 °F 42.4 °F 17.6 °F 32% 30.46 in 10.0 mi ESE 8.1 mph - N/A   Clear
10:15 AM 48.2 °F - 17.6 °F 30% 30.45 in 10.0 mi East 6.9 mph - N/A   Clear
10:35 AM 50.0 °F - 17.6 °F 28% 30.44 in 10.0 mi East 9.2 mph - N/A   Clear
10:55 AM 51.8 °F - 19.4 °F 28% 30.43 in 10.0 mi SSE 4.6 mph - N/A   Clear
11:15 AM 51.8 °F - 23.0 °F 33% 30.42 in 10.0 mi Calm Calm - N/A   Clear
11:35 AM 53.6 °F - 24.8 °F 33% 30.40 in 10.0 mi East 5.8 mph - N/A   Clear
11:55 AM 53.6 °F - 24.8 °F 33% 30.39 in 10.0 mi Calm Calm - N/A   Clear
12:15 PM 55.4 °F - 26.6 °F 33% 30.38 in 10.0 mi South 8.1 mph - N/A   Clear
12:35 PM 55.4 °F - 26.6 °F 33% 30.37 in 10.0 mi SE 5.8 mph - N/A   Clear
12:55 PM 57.2 °F - 28.4 °F 33% 30.36 in 10.0 mi SSW 4.6 mph - N/A   Clear
1:15 PM 57.2 °F - 30.2 °F 36% 30.34 in 10.0 mi WSW 5.8 mph - N/A   Clear
1:35 PM 57.2 °F - 30.2 °F 36% 30.34 in 10.0 mi SSE 4.6 mph - N/A   Clear
1:55 PM 59.0 °F - 30.2 °F 34% 30.33 in 10.0 mi South 5.8 mph - N/A   Clear
2:15 PM 57.2 °F - 30.2 °F 36% 30.32 in 10.0 mi SE 3.5 mph - N/A   Clear
2:35 PM 57.2 °F - 30.2 °F 36% 30.31 in 10.0 mi SE 6.9 mph - N/A   Clear
2:55 PM 57.2 °F - 30.2 °F 36% 30.31 in 10.0 mi South 6.9 mph - N/A   Clear
3:15 PM 57.2 °F - 30.2 °F 36% 30.31 in 10.0 mi SSE 4.6 mph - N/A   Clear
3:35 PM 57.2 °F - 32.0 °F 38% 30.31 in 10.0 mi SE 5.8 mph - N/A   Clear
3:55 PM 55.4 °F - 30.2 °F 38% 30.31 in 10.0 mi SE 4.6 mph - N/A   Clear
4:15 PM 55.4 °F - 30.2 °F 38% 30.31 in 10.0 mi ESE 3.5 mph - N/A   Clear
4:35 PM 55.4 °F - 32.0 °F 41% 30.31 in 10.0 mi ESE 3.5 mph - N/A   Clear
4:55 PM 51.8 °F - 32.0 °F 47% 30.30 in 10.0 mi East 3.5 mph - N/A   Clear
5:15 PM 50.0 °F - 32.0 °F 50% 30.29 in 10.0 mi East 3.5 mph - N/A   Clear
5:35 PM 48.2 °F - 32.0 °F 54% 30.29 in 10.0 mi East 3.5 mph - N/A   Clear
5:55 PM 48.2 °F - 32.0 °F 54% 30.30 in 10.0 mi Calm Calm - N/A   Clear
6:15 PM 48.2 °F - 32.0 °F 54% 30.31 in 10.0 mi Calm Calm - N/A   Clear
6:35 PM 46.4 °F 43.5 °F 30.2 °F 53% 30.30 in 10.0 mi East 5.8 mph - N/A   Clear
6:55 PM 44.6 °F 42.2 °F 32.0 °F 61% 30.29 in 10.0 mi ENE 4.6 mph - N/A   Clear
7:15 PM 46.4 °F 44.3 °F 30.2 °F 53% 30.29 in 10.0 mi ENE 4.6 mph - N/A   Clear
7:35 PM 46.4 °F 44.3 °F 30.2 °F 53% 30.29 in 10.0 mi ENE 4.6 mph - N/A   Clear
7:55 PM 48.2 °F - 30.2 °F 50% 30.29 in 10.0 mi East 4.6 mph - N/A   Clear
8:15 PM 46.4 °F 45.2 °F 30.2 °F 53% 30.30 in 10.0 mi East 3.5 mph - N/A   Clear
8:35 PM 46.4 °F 44.3 °F 30.2 °F 53% 30.30 in 10.0 mi East 4.6 mph - N/A   Clear
8:55 PM 44.6 °F 42.2 °F 30.2 °F 57% 30.29 in 10.0 mi East 4.6 mph - N/A   Clear
9:15 PM 46.4 °F 42.4 °F 30.2 °F 53% 30.29 in 10.0 mi East 8.1 mph - N/A   Clear
9:35 PM 46.4 °F 42.9 °F 30.2 °F 53% 30.29 in 10.0 mi East 6.9 mph - N/A   Clear
9:55 PM 48.2 °F - 30.2 °F 50% 30.29 in 10.0 mi East 6.9 mph - N/A   Clear
10:15 PM 48.2 °F - 30.2 °F 50% 30.30 in 10.0 mi East 8.1 mph - N/A   Clear
10:35 PM 48.2 °F - 28.4 °F 46% 30.29 in 10.0 mi East 9.2 mph - N/A   Clear
10:55 PM 48.2 °F - 28.4 °F 46% 30.28 in 10.0 mi East 8.1 mph - N/A   Clear
11:15 PM 48.2 °F - 28.4 °F 46% 30.27 in 10.0 mi East 8.1 mph - N/A   Clear
11:35 PM 48.2 °F - 30.2 °F 50% 30.27 in 10.0 mi East 6.9 mph - N/A   Clear
11:55 PM 50.0 °F - 30.2 °F 47% 30.26 in 10.0 mi East 6.9 mph - N/A   Mostly Cloudy